Tracking 30995 objects as of 5-Jul-2025
HD Live streaming from Space Station
objects crossing your sky now

FREGAT R/B

Track FREGAT R/B now!


NORAD ID: 49504
Int'l Code: 2021-113B
Perigee: 2,591.5 km
Apogee: 37,606.7 km
Inclination: 63.4 °
Period: 714.3 minutes
Semi major axis: 26470 km
RCS: Unknown
Launch date: November 25, 2021
Source: Commonwealth of Independent States (former USSR) (CIS)
Launch site: PLESETSK MISSILE AND SPACE COMPLEX (PKMTR)

Note: This is a ROCKET BODY
Your satellite tracking list
COSMOS 1823 DEB
Track 1 satellite(s)




NASA's NSSDC Master Catalog

Two Line Element Set (TLE):
1 49504U 21113B   25184.04099549 -.00000691  00000-0  00000-0 0  9997
2 49504  63.3883 240.5017 6614098 267.9753  21.1406  2.01589899 26527
Source of the keplerian elements: AFSPC